Location: Olsztyn
(53.7767°N, 20.4765°E)
Time: 17:23:45
(UTC+01:00)

ISS - Visible Passes

Search period start: 03 December 2021 00:00
Search period end: 13 December 2021 00:00
Orbit: 417 x 423 km, 51.6° (Epoch: 03 December)

Date Brightness Start Highest point End Pass type
(mag) Time Alt. Az. Time Alt. Az. Time Alt. Az.
03 Dec -2.6 17:11:50 10° W 17:15:05 41° SSW 17:17:09 19° SE visible
03 Dec -0.6 18:49:22 10° WSW 18:50:09 13° WSW 18:50:09 13° WSW visible
04 Dec -2.9 16:24:36 10° W 16:27:53 49° SSW 16:31:12 10° ESE visible
04 Dec -1.4 18:01:43 10° W 18:04:15 19° SSW 18:05:09 18° S visible
05 Dec -1.7 17:14:17 10° W 17:17:10 26° SSW 17:20:02 10° SSE visible
06 Dec -2.0 16:26:56 10° W 16:30:02 33° SSW 16:33:07 10° SE visible
07 Dec -0.7 17:17:13 10° WSW 17:19:06 14° SW 17:20:58 10° S visible
08 Dec -0.9 16:29:33 10° W 16:32:03 19° SSW 16:34:33 10° SSE visible
